Regional Weather Roundup
Issued by NWS Green Bay, WI

Home | Current Version | Previous Version | Graphics & Text | Print | Product List | Glossary Off
Versions: 1 2 3 4 5 6 7 8 9 10 11 12 13 14 15 16 17 18 19 20 21 22 23 24 25 26 27 28 29 30 31 32 33 34 35 36 37 38 39 40 41 42 43 44 45 46 47 48 49 50

000
ASUS43 KGRB 251511
RWRGRB

NORTH-CENTRAL AND NORTHEAST WISCONSIN REGIONAL WEATHER ROUNDUP
NATIONAL WEATHER SERVICE GREEN BAY WI
1000 AM CDT TUE APR 25 2017

WIZ005-009-010>012-018-019-251600-
NORTH CENTRAL WISCONSIN

CITY           SKY/WX    TMP DP  RH WIND       PRES   REMARKS
IRONWOOD       CLOUDY    59  36  42 SE8       29.59R
MANITOWISH WTR CLOUDY    59  36  43 SE9       29.60S
ARBOR VITAE    CLOUDY    62  37  39 SE9       29.60F
EAGLE RIVER    PTSUNNY   61  34  36 SE10      29.62F
LAND O LAKES   PTSUNNY   57  36  44 SE7       29.64F
RHINELANDER    CLOUDY    63  37  38 S9        29.62F
PHILLIPS       CLOUDY    62  37  40 S12G17    29.58S
ANTIGO         SUNNY     59  41  51 SE12      29.64F
TOMAHAWK       MOSUNNY   62  38  41 S3        29.61F
MERRILL        PTSUNNY   60  39  45 SE10      29.61F
$$

WIZ013-073-251600-
NORTHEAST WISCONSIN

CITY           SKY/WX    TMP DP  RH WIND       PRES   REMARKS
IRON MOUNTAIN  CLOUDY    54  40  59 SE9       29.67F
MARINETTE      MOSUNNY   56  45  66 S13       29.70F
OCONTO         MOSUNNY   58  46  64 S10G16    29.68F
$$

WIZ017-030-035>037-045-251600-
CENTRAL WISCONSIN

CITY           SKY/WX    TMP DP  RH WIND       PRES   REMARKS
MEDFORD        SUNNY     60  39  47 SE9       29.59F
WAUSAU         SUNNY     63  40  42 SE12      29.60F
MOSINEE        MOSUNNY   61  39  44 SE12      29.62F
MARSHFIELD     SUNNY     64  39  39 S12       29.59S
WISC RAPIDS    NOT AVBL
STEVENS POINT  SUNNY     63  40  43 SE8       29.63S
WAUPACA        SUNNY     67  45  43 SE12      29.64S
SHAWANO        SUNNY     63  45  51 SE8       29.66F
CLINTONVILLE   SUNNY     63  43  48 SE10      29.64F
WAUTOMA        SUNNY     66  44  45 S9        29.63F
$$

WIZ038-039-048-051-251600-
FOX VALLEY

CITY           SKY/WX    TMP DP  RH WIND       PRES   REMARKS
NWS GREEN BAY  SUNNY     61  50  67 S15       29.68F
APPLETON       NOT AVBL
OSHKOSH        SUNNY     63  46  54 SE15      29.64F
FOND DU LAC    SUNNY     65  45  48 SE13      29.65F
$$

WIZ022-050-052-251600-
EAST CENTRAL WISCONSIN

CITY           SKY/WX    TMP DP  RH WIND       PRES   REMARKS
EPHRAIM        FAIR      54  45  72 S17G26    29.70F
WASHINGTON ISL PTSUNNY   55  44  65 S13G18    29.71F
STURGEON BAY   SUNNY     56  46  69 S17G30    29.71S
MANITOWOC      SUNNY     53  45  74 S21G29    29.71F
SHEBOYGAN      SUNNY     55  48  77 S12       29.70F
$$

LMZ563-521-522-541>543-251600-
LAKESHORE

STATION/POSITION TIME  TEMP    WIND        PRES    VSBY  WAVE
                       AIR SEA DIR/SP/G                  HT/PER
                 (UTC) (F)     (DEG/KT/KT) (MB)    (MI)  (FT/S)
SHEBOYGAN LKSHOR 1500   45     180/  7/  8 1006.1F
KEWAUNEE LKSHORE 1448   47     180/  9/ 11 1006.3F
NORTHPORT PIER   1440   48     150/ 11/ 17 1006.8F
N MID LAKE BUOY  1450   43 37  120/  6/  8 1008.2F         2/ 3
CHAMBERS ISLAND  1440   57     150/ 10/ 15 1006.1S
MENOMINEE LKSHOR 1448   51     160/ 10/ 14 1005.3F
$$



USA.gov is the U.S. government's official web portal to all federal, state and local government web resources and services.